Skip Page Navigation
NASA JPL Caltech
NASA Logo - Jet Propulsion Laboratory + View the NASA Portal
+ Near-Earth Object (NEO) Program
Search JPL
JPL Home Earth Solar System Stars & Galaxies Technology
JPL Solar System Dynamics
BODIES ORBITS EPHEMERIDES TOOLS PHYSICAL DATA DISCOVERY FAQ SITE MAP
JPL Small-Body Database Browser
Search: [ help ]  
53289 (1999 GD5)
Classification: Main-belt Asteroid          SPK-ID: 2053289
Ephemeris | Orbit Diagram | Orbital Elements | Physical Parameters | Discovery Circumstances | Close-Approach Data ]

[ show orbit diagram ]
Orbital Elements at Epoch 2457000.5 (2014-Dec-09.0) TDB
Reference: JPL 11 (heliocentric ecliptic J2000)
 Element Value Uncertainty (1-sigma)   Units 
e .1890310780321156 9.9799e-08  
a 2.551596711128466 2.0568e-08 AU
q 2.069265634120651 2.6074e-07 AU
i 7.114104261265608 8.5953e-06 deg
node 133.8158566789122 6.6632e-05 deg
peri 5.455671914669752 7.1158e-05 deg
M 343.8328737634291 2.3508e-05 deg
tp 2457067.356987833250
(2015-Feb-13.85698783)
9.727e-05 JED
period 1488.731841873401
4.08
1.8001e-05
4.928e-08
d
yr
n .2418165514260652 2.9239e-09 deg/d
Q 3.03392778813628 2.4456e-08 AU
  Orbit Determination Parameters
   # obs. used (total)      778  
   data-arc span      5748 days (15.74 yr)  
   first obs. used      1999-02-03  
   last obs. used      2014-10-30  
   planetary ephem.      DE431  
   SB-pert. ephem.      SB431-BIG16  
   condition code      0  
   fit RMS      .5847  
   data source      ORB  
   producer      Otto Matic  
   solution date      2014-Nov-10 14:38:55  

Additional Information
 Earth MOID = 1.08317 AU 
 T_jup = 3.404 
[ show covariance matrix ]

Ephemeris | Orbit Diagram | Orbital Elements | Physical Parameters | Discovery Circumstances | Close-Approach Data ]

Physical Parameter Table
Parameter Symbol Value Units Sigma Reference Notes
absolute magnitude H 14.2 mag n/a MPO272892  

53289 (1999 GD5)          Discovered 1999-Apr-07 by Shimizu, Y., Urata, T. at Nachi-Katsuura (905)
Reference: 20030216/Numbers.arcLast Updated: 2004-04-19

[ show close-approach data ]
Ephemeris | Orbit Diagram | Orbital Elements | Physical Parameters | Discovery Circumstances | Close-Approach Data ]
ABOUT SSD CREDITS/AWARDS PRIVACY/COPYRIGHT GLOSSARY LINKS
FirstGov 2014-Nov-23 02:09 UT
(server date/time)  
NASA Home Page
Site Manager:   Donald K. Yeomans
Webmaster  Alan B. Chamberlin